RH
92 95 92 91 94 93 92 90 87 82 78 78 78 79 79 78 82 85 83 87 88 84 83 82 84 92 95 93 91 83 78 80 83 82 81 82 85 88 91 92 91 89 85 83 82 78 67 53 42 37 37 35 33 34 36 39 42 43 45 45 43 37 32 31 30 25 25 30 32 32 32 32 32 33 33 34 35 36 38 39 39 39 39 39 39 39
99 99 95 94 96 94 89 85 80 79 80 84 85 85 87 85 84 91 96 97 92 81 81 84 88 97 103 102 95 83 78 80 83 85 86 88 91 92 94 95 92 88 86 85 81 68 53 42 39 38 36 35 35 38 42 45 44 41 38 36 33 28 25 25 25 26 29 31 32 32 32 33 33 34 35 35 36 36 37 38 39 40 41 41 42 42
107 104 100 96 91 85 82 84 84 85 87 88 88 89 94 92 89 97 102 98 88 81 83 87 90 100 107 106 97 85 81 82 86 90 93 94 96 98 98 96 91 89 87 80 67 52 42 39 38 37 36 38 41 43 43 40 35 31 28 27 25 24 23 24 26 29 31 32 32 32 32 33 34 35 35 35 35 35 36 38 39 40 41 42 44 45
105 99 92 84 80 82 87 91 90 90 91 91 92 94 98 97 95 98 99 94 88 85 88 91 93 100 107 106 98 88 83 85 90 93 94 96 100 99 95 91 89 86 76 62 49 42 39 38 38 39 41 42 43 41 36 30 27 26 25 25 25 26 26 27 29 30 31 32 33 32 33 33 34 35 35 35 36 37 38 40 41 42 43 44 45 47
94 87 83 82 85 90 95 95 93 92 95 96 96 96 99 101 98 96 95 94 93 94 97 96 93 95 102 102 94 87 85 89 94 97 98 99 97 93 90 88 81 69 56 46 41 40 39 40 42 43 43 42 39 34 30 27 27 27 26 27 27 28 29 30 31 31 32 32 32 33 33 33 33 34 35 37 38 40 41 42 44 45 45 47 48 49
81 77 78 84 89 91 92 93 94 94 96 101 104 103 102 102 100 97 93 92 96 103 107 102 94 90 94 94 88 86 89 94 99 101 100 96 92 90 84 74 61 49 44 42 42 43 44 45 45 44 42 39 34 30 29 29 29 29 29 28 29 29 31 32 32 32 32 32 32 32 32 33 33 35 36 38 39 41 42 42 44 45 46 47 48 50
77 77 78 82 86 87 90 93 93 93 97 104 107 104 100 97 96 97 96 98 103 107 109 105 94 88 89 89 85 83 86 90 93 94 94 91 87 78 64 52 46 45 46 48 51 51 50 48 46 44 41 37 33 31 32 32 32 32 31 30 30 30 30 30 30 31 30 31 31 32 33 35 37 38 39 39 39 40 42 43 44 45 46 46 47 48
78 81 81 81 84 85 86 88 88 89 93 97 98 96 96 96 98 100 103 104 104 104 107 101 91 88 89 86 85 85 86 85 85 85 83 78 69 57 49 47 49 52 55 57 57 53 48 46 44 42 39 36 34 34 34 34 34 33 32 31 31 30 31 31 32 32 33 33 34 36 37 38 39 40 41 41 41 41 41 43 44 44 45 44 45 46
83 85 82 80 82 83 83 85 86 88 92 95 98 101 103 105 107 106 106 106 105 105 107 98 89 89 88 83 83 86 86 85 81 74 66 57 51 47 47 50 53 56 57 54 49 43 41 40 38 37 35 35 35 36 37 37 37 37 36 35 34 35 35 36 36 37 38 39 39 40 40 41 42 42 42 42 41 41 40 41 42 43 45 45 47 47
80 82 82 82 85 87 89 91 95 100 104 106 106 105 103 100 99 98 101 104 104 101 100 94 90 92 87 81 84 84 81 76 67 58 52 48 46 45 47 49 50 50 45 41 37 35 35 34 34 34 34 36 37 38 38 38 38 37 37 36 37 38 39 41 42 43 44 44 44 44 43 43 43 43 43 44 45 46 46 47 49 50 51 50 50 48
83 86 90 94 96 100 103 104 106 107 105 100 94 89 84 80 78 78 80 84 88 91 94 94 90 88 87 87 89 84 71 61 54 50 48 46 43 42 43 43 42 39 36 34 33 33 33 32 33 34 34 36 37 37 38 38 39 39 39 41 41 43 44 44 44 43 43 43 43 43 43 44 45 46 48 51 55 58 59 59 58 55 53 49 45 42
100 103 105 107 106 105 103 99 95 90 85 80 77 75 73 72 68 65 68 77 88 94 94 92 91 90 91 90 85 73 59 53 51 48 45 41 40 40 40 38 36 35 34 34 34 33 33 33 34 36 38 40 41 40 40 40 40 40 40 40 40 41 41 41 42 42 43 44 45 46 47 48 49 49 49 50 51 52 52 50 47 45 42 41 40 39
107 104 101 96 91 86 81 77 74 72 73 74 75 72 68 65 63 67 79 90 97 98 95 95 95 89 81 73 65 58 54 53 51 46 41 39 38 37 36 36 35 35 34 35 36 37 37 39 40 42 42 41 40 39 38 38 38 38 39 39 40 41 42 43 44 44 44 45 44 44 43 43 42 41 40 39 39 39 39 40 40 41 42 43 44 44
89 86 81 76 75 74 74 75 76 76 74 73 71 68 67 69 70 77 88 94 96 96 94 89 80 70 60 53 51 51 51 52 49 44 41 38 38 38 37 37 38 39 41 41 42 42 42 43 42 41 40 39 39 39 39 39 39 39 40 39 39 39 38 38 38 38 38 38 38 38 38 38 38 39 39 39 40 41 42 43 44 45 46 47 48 48
80 87 86 86 86 83 81 77 74 71 67 67 70 72 78 83 82 84 87 88 88 84 77 67 58 52 49 45 46 49 49 49 47 43 42 43 44 44 43 44 45 45 45 44 44 43 42 41 40 40 39 39 38 37 36 36 35 35 35 34 34 34 34 35 36 36 37 38 39 40 40 41 41 41 42 43 44 44 45 45 45 46 46 46 47 47
81 90 87 84 82 75 71 69 67 67 67 72 80 86 90 93 91 86 80 74 67 62 59 54 49 46 43 41 45 49 50 48 46 45 47 48 48 47 47 47 46 45 44 43 42 41 40 39 38 37 35 34 33 32 32 32 32 33 34 34 35 36 36 36 37 37 38 38 39 39 40 40 40 40 41 41 41 41 41 41 40 39 38 37 37 36
68 79 79 74 73 70 69 71 72 74 76 80 85 89 88 85 82 75 66 60 55 51 49 47 44 42 43 44 48 50 49 46 47 48 49 49 48 48 47 46 45 44 43 41 39 38 36 35 34 33 33 33 34 34 35 36 37 37 39 39 39 39 39 38 38 37 37 37 37 37 37 36 35 34 32 31 30 28 26 25 24 23 22 20 19 18
55 73 86 85 80 79 78 80 83 85 85 83 81 77 71 65 63 59 54 52 48 43 41 42 42 43 45 47 48 50 50 50 52 52 51 49 48 47 46 45 43 40 38 36 35 34 33 34 35 36 38 39 39 41 42 42 43 42 42 40 39 38 38 37 37 37 36 35 34 32 30 27 24 21 19 17 16 15 13 13 12 11 11 11 10 10
53 65 91 103 98 92 89 87 88 85 78 73 67 61 57 55 52 49 45 42 39 37 39 43 46 46 48 51 53 54 54 53 53 52 50 49 46 45 42 39 36 35 35 36 36 38 40 42 44 45 46 46 45 45 44 43 42 41 39 38 38 37 37 36 35 33 31 27 24 21 19 17 15 13 12 12 11 11 10 10 10 9 9 9 9 9
61 60 79 98 96 88 81 74 71 68 62 58 56 52 50 49 46 44 42 42 42 43 46 50 54 55 56 57 56 53 52 51 50 48 46 43 40 38 36 35 37 40 43 45 47 49 51 51 50 49 47 46 45 44 43 42 42 41 41 41 40 39 37 33 28 24 20 17 15 14 13 12 12 12 11 11 10 10 10 10 9 9 9 9 9 8
62 56 62 72 70 64 59 52 50 49 47 46 46 45 45 47 48 47 49 53 55 55 58 61 62 63 62 59 55 50 48 46 42 40 38 37 38 40 42 46 50 52 53 53 54 54 53 50 48 46 45 45 45 44 44 44 44 44 43 41 38 34 29 24 20 17 15 14 13 13 13 12 12 12 11 10 10 10 9 9 8 8 8 8 8 7
53 50 50 51 49 45 41 37 35 36 38 41 43 46 49 54 55 53 54 60 64 64 65 64 61 60 59 54 49 44 41 40 40 42 45 48 51 54 56 58 58 56 54 52 51 50 48 48 47 48 48 47 47 47 46 46 44 42 38 32 27 23 19 17 15 14 14 14 13 13 13 12 11 11 10 9 9 8 8 8 7 7 7 7 7 7
41 38 36 36 38 38 36 36 40 44 47 50 52 54 58 61 60 57 57 60 62 61 59 55 51 48 46 43 42 43 46 50 55 59 61 62 61 60 59 57 53 50 48 48 49 50 50 50 50 50 49 48 48 47 44 41 36 30 24 20 17 16 15 15 14 14 13 12 12 12 11 10 9 9 8 8 8 8 8 8 7 7 7 6 6 6
33 32 33 38 46 50 48 47 50 54 56 58 59 60 62 61 58 56 55 53 51 49 47 45 43 43 45 48 53 58 62 65 66 66 64 61 58 55 51 47 45 46 50 53 54 53 52 51 50 49 48 47 44 40 35 29 23 19 17 15 15 15 14 14 13 12 12 11 11 10 9 9 8 8 8 8 8 7 7 7 6 6 5 5 5 4
36 36 35 38 45 52 54 55 57 58 60 60 59 57 56 53 50 48 46 45 45 47 52 55 57 59 62 64 67 67 66 65 62 59 55 51 48 46 45 47 51 54 57 57 54 52 51 50 49 47 44 39 33 27 22 19 17 16 15 15 14 14 13 13 13 12 11 11 10 10 10 9 9 8 7 7 6 6 5 5 5 4 4 4 4 4
41 41 39 38 39 41 43 47 49 49 50 50 48 47 45 43 43 45 48 52 57 63 69 72 71 69 67 66 64 62 59 56 52 48 46 45 47 50 54 58 61 61 59 55 53 52 50 48 44 38 32 25 21 18 17 16 16 15 15 14 14 14 14 13 12 11 11 11 10 10 9 8 7 6 6 5 5 5 5 4 4 4 4 4 4 4
44 45 44 43 42 39 37 39 40 39 40 42 43 45 47 49 53 58 63 67 69 70 71 70 68 65 62 59 57 55 53 52 51 52 55 59 62 64 64 64 61 59 56 53 51 48 43 37 31 25 21 18 17 17 16 16 15 15 15 15 14 13 13 12 12 11 11 10 9 8 7 6 6 5 5 5 5 5 5 4 5 4 4 4 4 4
45 46 45 46 46 44 42 45 46 46 47 51 55 58 60 63 65 66 67 66 65 64 64 63 62 61 59 58 59 60 61 63 65 68 70 70 68 65 62 58 55 52 49 45 40 34 28 23 20 18 17 17 16 16 16 16 16 15 15 14 13 13 12 12 11 10 9 8 7 6 6 6 6 5 5 5 5 5 5 5 5 5 4 4 4 4
45 46 46 49 52 51 50 52 55 55 56 58 60 61 61 61 62 61 61 62 63 65 66 67 67 67 66 67 69 70 71 72 71 69 66 62 57 54 52 49 45 41 35 29 24 20 19 17 17 16 16 16 16 16 16 16 15 14 13 13 12 12 11 10 9 8 7 7 6 6 6 6 6 5 5 5 5 5 5 5 5 5 4 4 4 3
47 48 48 51 56 57 56 57 58 58 59 60 61 62 63 64 65 67 68 71 74 77 78 78 77 75 73 73 72 71 68 64 61 56 52 49 46 44 40 36 30 25 21 19 17 17 16 16 15 15 15 16 16 16 15 14 13 13 12 12 11 10 10 9 8 8 7 7 6 6 6 6 5 6 6 6 6 5 5 5 4 4 3 3 3 3
50 52 52 54 60 64 65 66 67 67 70 72 72 74 76 77 78 78 79 80 81 81 79 77 74 71 68 65 61 58 54 51 48 45 42 39 35 31 26 22 19 18 17 17 16 16 16 15 15 16 15 15 14 14 13 13 12 12 11 10 10 10 9 9 8 8 7 6 7 6 6 6 6 6 6 5 5 4 4 3 3 3 3 3 3 3
57 59 60 62 69 75 76 77 78 78 80 81 81 81 81 80 79 78 76 75 73 71 67 64 61 57 54 51 49 46 45 42 39 35 31 27 23 20 18 17 17 17 16 16 16 16 16 16 15 14 14 13 13 13 13 12 11 11 10 10 10 10 9 9 8 7 6 6 6 6 6 6 6 6 5 4 4 3 3 3 3 3 3 3 3 3
67 70 71 71 75 78 78 78 79 79 80 79 77 75 73 71 69 66 64 61 58 55 52 49 47 46 44 43 41 38 35 30 26 23 20 18 18 17 17 17 16 16 17 17 17 16 15 14 14 13 13 13 12 11 11 11 11 11 11 11 10 10 9 8 7 7 7 7 6 6 6 6 5 4 4 3 3 3 3 3 3 3 3 3 3 3
72 73 72 71 71 73 73 73 73 71 70 68 65 63 60 57 55 52 49 48 46 45 43 41 40 38 35 32 28 24 21 19 17 17 16 16 16 16 16 16 17 17 16 16 15 14 14 13 12 12 12 12 12 12 12 12 12 11 11 11 10 10 9 8 7 7 7 7 6 6 5 4 4 4 3 3 3 3 3 3 3 3 3 3 3 3
69 68 67 66 65 65 64 63 62 59 57 54 51 49 46 44 43 42 41 41 39 37 34 31 28 25 22 19 18 17 16 16 15 15 15 15 15 15 16 16 15 15 14 14 13 13 12 12 12 12 12 13 13 13 13 13 12 12 12 11 10 9 8 7 7 7 7 6 5 5 4 4 4 3 3 3 3 3 3 3 3 3 3 3 3 3
62 61 60 58 56 55 53 51 49 47 45 43 42 40 39 38 36 35 33 30 27 24 21 20 18 17 17 16 16 15 15 14 14 14 14 15 15 14 14 13 13 13 12 12 12 12 12 13 13 13 13 13 13 13 14 14 13 13 12 10 9 8 8 8 7 6 5 4 4 4 4 4 4 4 4 4 4 4 3 3 3 3 3 3 3 3
54 53 51 50 47 45 43 41 40 40 40 39 37 35 32 29 25 22 20 18 17 16 16 16 16 15 15 15 15 14 14 14 14 13 13 13 13 13 12 12 12 12 12 12 12 13 14 14 14 13 12 12 13 13 14 14 13 12 11 9 8 8 8 7 6 5 4 4 4 4 4 4 4 4 4 4 4 4 4 3 3 3 3 3 3 3
47 46 44 43 42 40 39 39 38 37 35 31 27 23 19 17 15 14 14 14 14 14 14 14 14 14 13 13 14 14 14 14 13 13 13 13 13 13 13 13 13 13 13 14 14 15 14 13 12 11 11 12 12 12 12 12 10 10 9 8 8 8 8 6 5 4 4 4 4 4 4 4 4 4 4 4 4 4 4 4 4 3 3 3 3 3
44 42 42 42 42 41 39 36 31 26 22 18 16 15 14 14 14 13 13 13 13 13 13 13 13 13 13 13 14 14 13 14 13 13 13 13 14 15 15 15 15 15 15 14 14 13 13 12 12 12 11 12 11 11 10 9 9 8 8 8 8 7 6 5 4 5 5 5 5 4 4 4 4 4 4 4 4 4 4 4 3 3 3 3 3 3
45 45 44 44 40 35 28 23 18 16 14 14 14 14 14 14 13 13 12 12 12 12 13 13 13 13 14 13 14 13 12 13 13 12 13 13 14 15 15 15 15 14 13 12 12 12 12 13 14 14 12 11 10 9 9 9 9 8 8 7 6 5 5 5 5 5 5 4 4 4 4 4 4 4 4 4 4 3 3 3 3 3 3 3 3 3
49 46 42 35 28 21 17 15 14 14 14 15 14 14 13 13 12 12 12 12 13 13 13 13 13 13 13 13 12 12 12 12 12 12 12 13 13 13 13 13 13 12 11 11 11 12 13 13 13 13 11 10 9 9 9 9 9 8 7 6 5 5 5 5 5 5 5 4 4 4 4 4 3 3 3 3 3 3 3 3 3 3 3 3 3 3
45 36 28 21 17 15 15 15 15 15 14 14 13 12 12 12 12 13 13 13 13 12 12 12 11 11 11 11 11 11 12 12 13 13 13 13 13 13 13 12 12 11 11 12 12 13 13 13 12 10 10 9 9 9 9 9 8 7 6 5 5 6 6 5 5 5 4 4 4 4 4 3 3 3 3 3 3 3 3 3 3 3 3 3 3 3
30 22 17 15 15 15 15 14 14 13 12 12 12 12 12 13 13 12 12 11 11 10 10 9 10 10 10 11 11 12 12 13 14 14 14 14 14 13 13 12 12 12 13 14 14 13 13 12 11 10 9 9 9 9 8 8 7 6 6 6 6 6 6 5 5 5 4 4 4 4 4 3 3 3 3 3 3 3 3 3 3 3 3 3 3 3
18 15 15 15 15 14 14 13 12 11 11 11 12 12 12 12 11 11 10 10 10 10 10 10 10 10 11 11 12 13 13 14 14 14 14 14 13 12 12 12 13 14 15 15 14 13 12 11 11 10 10 9 9 8 7 6 6 6 6 6 6 6 6 5 5 5 4 4 4 4 3 3 3 3 2 3 3 3 3 3 3 3 3 3 3 3
15 15 15 15 15 14 13 12 11 11 12 12 12 12 12 11 11 10 10 10 10 10 11 11 11 12 12 12 13 13 13 13 13 13 12 12 12 12 13 13 14 15 15 14 12 11 11 11 11 11 10 9 8 7 6 6 6 6 6 6 6 6 6 5 5 5 4 4 4 4 4 3 3 3 3 3 3 3 3 3 3 3 3 3 3 3
15 15 15 15 14 13 12 12 13 13 13 12 12 11 11 11 10 10 10 11 11 11 11 12 12 13 13 13 13 13 12 12 11 11 11 11 12 13 14 15 15 14 13 12 11 11 11 11 11 10 9 8 7 6 6 6 6 6 6 6 6 6 6 5 5 5 4 4 4 4 3 3 3 3 3 3 3 3 3 3 3 3 3 3 3 3
15 15 15 14 12 12 12 13 13 13 12 11 11 11 11 10 10 10 10 11 11 11 11 11 11 12 12 12 12 11 11 10 10 10 11 11 13 14 14 14 14 13 12 11 11 11 11 11 10 9 8 7 6 6 7 7 6 6 6 6 6 6 6 5 5 5 5 4 4 4 3 3 3 3 3 2 2 3 3 3 3 3 3 3 3 3
15 15 13 12 11 11 12 12 12 12 11 11 10 11 11 10 10 10 10 9 9 9 9 9 9 9 10 10 10 9 10 10 10 11 11 12 13 13 13 13 12 12 11 11 11 11 10 10 9 8 7 7 7 7 7 6 6 6 6 6 6 6 6 6 5 5 4 4 4 4 3 3 3 3 3 3 3 3 4 4 3 2 3 3 3 3
14 13 11 10 10 11 12 12 11 11 11 11 11 10 10 9 9 8 8 8 8 8 8 8 8 8 8 8 8 9 9 10 10 11 12 12 13 13 12 12 11 11 11 11 10 10 9 8 7 7 7 7 7 7 7 6 6 6 6 6 6 6 6 6 5 5 4 4 4 4 4 3 3 3 3 3 3 2 3 4 3 2 3 3 3 3
13 12 10 9 10 11 12 11 10 10 10 9 9 9 8 8 8 7 7 7 7 7 7 7 7 7 7 8 8 9 10 10 11 12 12 12 12 12 11 11 11 11 10 9 9 8 7 7 7 7 8 7 7 7 6 6 6 6 6 6 6 6 6 5 5 5 4 4 4 4 4 4 3 3 3 3 3 3 3 4 4 3 2 3 3 3
13 11 9 8 9 10 10 10 10 9 8 8 8 8 8 8 7 7 7 6 6 6 7 7 7 7 7 8 8 9 11 12 12 12 12 11 11 10 10 10 10 10 9 8 7 7 8 8 8 8 7 7 7 7 6 6 6 6 6 6 6 5 5 5 5 5 5 4 4 4 4 4 4 4 4 3 3 3 3 3 4 4 3 3 3 3
Wind_Speed
65 66 69 69 69 71 71 72 72 72 72 71 71 71 71 71 71 72 72 72 73 71 69 68 66 66 68 70 73 74 75 75 75 75 75 75 77 79 82 84 86 86 86 86 86 87 88 87 85 83 81 80 78 76 76 75 72 69 65 64 64 65 61 56 55 56 56 58 59 61 62 63 64 64 64 65 65 66 67 69 70 71 71 72 73 74
66 68 70 70 71 72 72 73 73 73 73 72 73 73 73 73 72 72 73 73 73 70 68 67 66 68 70 72 75 76 76 77 77 77 77 78 80 82 84 86 87 87 87 87 88 88 87 85 83 81 80 78 76 75 73 71 68 64 61 61 61 60 57 53 53 55 57 60 61 63 64 65 65 66 66 67 68 69 70 72 73 74 75 76 77 78
68 70 71 71 72 72 73 73 74 74 74 74 74 74 74 74 73 73 73 73 72 69 68 68 69 70 73 75 76 78 78 78 78 79 79 81 83 85 87 88 88 88 88 88 88 87 85 82 81 79 77 76 74 72 68 65 62 60 58 57 57 56 55 54 54 57 60 62 64 65 66 66 67 68 70 70 72 73 74 75 76 77 78 79 80 82
69 71 71 71 72 72 72 73 74 74 74 74 75 75 74 75 74 74 73 72 71 70 69 70 71 72 75 76 78 79 79 79 79 80 81 83 85 87 89 89 89 89 89 88 86 84 82 80 78 76 75 73 71 67 63 60 59 57 56 56 56 56 56 57 59 61 63 64 66 67 68 69 70 71 73 74 76 77 77 79 80 81 82 83 84 86
69 70 70 71 71 71 72 73 74 73 73 74 75 75 75 75 75 74 73 72 71 71 72 73 73 74 77 78 79 80 80 80 80 81 83 85 88 89 89 89 89 89 88 85 83 80 79 77 76 74 73 70 66 62 59 58 58 58 58 58 59 59 60 61 63 64 66 67 68 69 70 72 73 74 76 78 79 81 82 83 84 85 86 87 88 90
68 69 69 70 71 71 72 73 74 74 73 74 75 76 75 75 75 74 74 73 72 72 74 76 76 76 79 80 80 80 81 81 81 83 85 87 89 89 89 89 89 87 84 82 80 78 77 76 74 71 68 65 62 60 59 59 60 61 62 63 63 64 65 66 67 68 69 70 71 73 74 76 77 79 80 82 83 84 86 87 88 89 91 91 92 93
68 68 69 70 71 72 72 73 74 74 73 73 75 76 76 75 75 75 75 75 74 73 75 78 78 77 80 83 82 81 81 81 83 85 87 88 88 88 88 87 85 83 81 79 78 76 75 72 70 67 64 62 61 60 61 62 63 65 66 67 67 68 69 70 71 72 73 74 76 77 79 80 82 83 85 87 88 89 90 91 93 94 95 95 96 97
68 68 69 70 71 71 72 73 74 74 74 74 75 76 76 76 76 76 76 76 76 76 77 80 80 79 81 83 84 83 82 83 84 86 87 87 87 86 85 83 81 79 78 77 76 74 71 68 66 64 63 62 62 62 63 65 67 68 70 70 71 72 73 74 76 77 79 80 81 82 83 85 87 88 90 92 93 94 94 95 96 98 99 100 101 102
66 67 68 69 70 71 72 73 74 74 75 75 76 77 77 77 78 78 78 79 79 78 79 81 81 81 82 82 83 84 84 85 86 86 86 85 84 83 81 79 78 77 76 74 73 70 67 66 65 64 64 64 64 65 67 69 70 72 73 73 74 76 77 79 81 83 84 86 87 87 89 90 92 93 94 96 98 99 100 100 101 102 103 104 106 107
64 65 67 68 70 71 73 74 75 76 77 78 79 79 79 80 80 80 80 81 81 80 81 82 82 83 83 82 83 84 85 86 86 85 84 82 80 78 76 74 73 72 71 70 69 68 67 67 66 67 67 68 69 70 71 73 74 76 77 77 78 80 82 84 86 88 89 91 92 93 95 96 97 98 100 101 102 104 106 106 107 108 109 110 111 112
65 66 68 70 71 73 74 76 77 77 78 79 79 80 80 80 80 80 80 81 81 80 81 82 83 83 83 83 85 86 85 85 84 83 80 77 73 71 69 68 68 68 68 68 68 69 69 69 70 71 72 73 74 75 77 78 79 80 81 82 83 85 87 89 91 92 94 95 97 98 100 101 102 103 104 105 106 108 110 111 112 113 114 114 115 115
67 68 70 72 73 75 76 77 77 77 77 77 78 78 78 78 78 77 77 78 78 79 80 81 82 83 83 84 85 86 85 83 79 75 71 69 67 65 65 65 66 67 68 69 71 72 73 73 74 76 77 79 80 81 82 83 85 86 87 87 88 90 92 94 95 97 98 99 101 102 104 105 106 107 107 108 109 110 112 113 113 114 114 115 116 117
69 71 72 73 74 75 75 76 76 76 76 76 77 78 77 77 76 74 74 75 76 78 79 81 83 83 82 82 83 82 80 76 72 68 66 66 66 66 67 68 69 70 72 73 74 76 77 78 79 81 83 84 85 86 88 89 90 91 92 93 94 96 97 98 100 100 101 102 104 105 106 106 107 108 109 109 109 110 112 113 114 115 116 117 119 120
69 71 72 73 74 74 74 74 74 74 74 75 76 76 75 74 72 71 72 74 75 77 79 81 82 82 80 79 77 75 72 69 68 68 68 69 69 70 71 72 73 75 76 77 78 80 81 83 85 87 88 90 91 92 94 95 96 96 98 98 99 99 100 100 101 102 103 104 105 106 107 108 108 109 110 112 113 114 115 116 118 119 120 122 123 125
66 68 70 71 71 72 72 72 72 72 72 71 71 71 71 71 72 71 71 73 75 77 78 80 80 79 76 72 69 67 67 68 69 71 72 72 73 75 75 77 78 79 80 82 83 84 86 88 90 91 93 95 96 97 97 98 98 98 99 99 100 100 101 102 103 104 105 106 108 110 111 112 113 114 115 117 118 119 120 122 123 124 125 126 127 127
63 66 68 68 69 69 68 68 68 68 67 67 68 69 70 71 73 73 74 75 75 76 76 77 76 73 70 66 64 66 68 70 72 73 75 76 77 79 80 81 83 84 85 86 87 89 91 92 94 95 96 97 97 97 98 98 99 99 100 102 103 104 105 107 108 109 110 112 113 115 116 118 119 119 120 120 121 122 123 123 124 124 125 125 126 126
58 61 64 65 65 65 65 65 65 66 66 67 68 70 71 73 75 75 75 75 75 74 72 71 68 66 65 65 66 69 71 73 75 77 78 80 82 83 84 86 87 89 90 91 92 93 94 95 95 96 97 97 98 99 100 102 104 105 106 108 109 111 112 113 114 115 116 116 117 118 119 119 119 119 119 119 119 119 119 120 120 120 120 120 121 121
54 55 60 63 63 64 64 64 66 67 68 69 71 72 73 74 74 75 73 72 71 69 66 65 65 64 66 68 70 72 74 76 78 80 82 84 85 87 89 91 92 94 94 95 95 95 95 96 97 98 100 101 103 105 106 108 110 111 113 114 114 115 116 117 118 119 119 119 119 118 118 118 117 117 116 115 115 114 114 115 115 115 115 115 115 116
54 52 56 62 64 65 65 66 67 69 70 71 72 73 73 73 72 71 69 67 65 64 63 65 67 68 70 72 74 76 78 79 82 84 86 88 89 91 93 94 95 95 96 96 96 97 99 100 102 104 105 107 109 110 112 113 114 116 117 118 119 119 120 120 120 120 119 118 117 116 116 115 115 114 113 112 112 111 111 111 111 111 111 111 111 112
56 53 54 61 65 66 67 67 68 69 70 70 71 70 69 68 67 65 64 64 64 64 65 68 70 71 74 77 79 80 81 84 86 88 90 91 92 93 94 94 95 96 97 98 100 102 104 106 107 109 110 112 113 114 116 117 119 121 122 123 124 124 124 123 121 120 118 116 115 114 113 113 112 112 111 111 110 110 110 109 109 109 109 109 109 109
59 58 58 61 65 67 67 66 66 66 66 65 65 64 63 62 62 62 63 66 67 68 70 72 73 75 78 81 83 84 86 88 89 91 92 92 93 93 94 95 97 98 100 102 104 106 108 110 111 113 114 116 117 119 121 123 124 126 127 127 126 125 124 122 121 119 118 116 115 114 113 113 112 111 110 109 108 107 107 107 106 106 105 105 105 105
60 60 60 61 63 64 64 62 61 60 59 59 59 59 60 62 64 65 66 68 71 73 75 77 78 79 82 85 86 87 89 89 90 91 92 93 94 95 97 98 100 102 104 106 108 110 111 113 115 116 118 120 122 124 126 127 128 128 127 126 125 123 122 120 119 118 117 116 115 114 112 111 110 109 108 107 106 105 105 104 104 103 103 102 103 102
59 58 57 56 56 57 57 56 55 55 56 57 59 61 63 66 68 69 70 71 74 77 80 82 82 83 84 86 86 88 89 90 91 92 94 96 97 98 100 102 104 106 107 109 111 113 115 117 119 121 123 125 126 127 128 128 127 126 125 123 122 121 119 118 117 116 114 113 111 110 109 108 107 106 105 105 104 104 104 104 104 103 102 102 102 101
54 52 49 48 49 52 54 54 55 56 59 61 63 65 67 69 71 73 75 76 78 80 83 85 85 85 86 86 87 88 90 92 94 96 98 99 101 102 104 106 107 109 111 114 116 118 120 122 124 126 127 128 129 128 128 127 125 124 122 121 120 119 117 116 114 112 111 109 109 108 108 107 106 106 105 105 104 103 103 102 102 102 101 101 100 99
49 49 48 47 48 51 55 57 59 61 63 66 68 69 71 74 75 77 78 80 81 82 84 86 86 87 88 89 90 92 93 95 97 99 101 103 104 106 108 110 111 113 116 118 121 123 125 127 128 129 129 128 127 126 125 123 122 121 120 119 117 116 114 113 112 111 110 110 110 110 109 108 107 105 104 103 102 101 100 99 99 98 98 97 97 96
50 52 53 54 54 55 57 60 62 63 66 70 72 74 75 76 78 79 79 81 82 83 85 87 88 90 91 92 94 96 98 100 102 103 105 107 108 110 112 114 116 118 121 123 125 126 127 128 128 127 126 125 123 122 121 120 119 118 117 115 114 113 112 112 112 112 112 111 110 109 108 106 104 103 102 100 99 98 97 97 96 95 95 94 93 92
54 57 59 61 63 63 63 65 67 68 69 72 74 76 77 78 78 79 80 82 84 85 87 90 91 93 95 96 99 101 103 105 107 108 110 112 114 115 117 119 121 123 125 126 127 127 127 126 125 124 123 121 120 119 118 117 116 115 114 113 113 112 112 112 112 112 110 109 108 106 104 103 102 101 99 98 97 96 96 95 94 94 93 92 90 89
58 60 63 65 68 69 68 69 71 71 71 72 74 76 77 78 79 80 82 84 86 88 90 93 95 97 98 100 102 104 106 108 110 112 114 115 117 119 120 122 123 125 125 125 124 124 123 122 121 120 119 118 117 116 115 114 114 113 112 112 112 112 111 111 110 109 108 106 105 103 102 101 100 99 98 97 96 95 94 94 93 92 91 90 89 88
61 63 64 66 69 70 70 69 71 71 72 73 75 76 78 80 81 83 85 87 90 92 94 96 98 100 102 104 105 107 109 110 112 114 116 118 119 120 121 122 122 122 122 121 121 120 119 119 118 117 116 115 114 113 113 112 112 112 112 111 110 110 109 109 108 107 106 105 103 102 101 100 99 98 97 96 95 94 92 92 91 90 89 88 87 86
62 63 63 64 68 71 72 72 74 75 76 78 79 80 82 84 85 87 88 90 92 94 96 98 101 103 105 106 108 110 112 114 115 117 119 120 120 120 120 120 120 119 119 118 118 117 116 116 115 113 112 111 111 110 111 111 111 110 109 108 108 107 107 107 107 106 105 103 102 100 99 98 97 96 95 93 91 90 90 89 88 88 87 86 85 84
63 65 66 66 69 73 75 77 78 79 81 82 83 84 85 86 88 89 90 92 94 96 98 101 103 106 108 110 112 114 115 117 118 119 120 120 119 119 118 117 116 116 115 115 114 113 112 111 110 109 109 109 109 109 109 109 108 108 107 106 106 106 107 107 106 105 103 102 100 99 98 96 94 93 91 90 88 87 87 86 85 85 84 83 82 81
67 69 70 71 72 75 77 79 81 82 83 84 85 85 87 88 89 91 92 94 96 99 101 104 106 109 111 113 115 116 117 118 118 118 117 116 116 115 114 113 112 112 111 110 109 109 108 108 107 107 107 107 107 106 106 106 106 105 105 105 105 106 106 105 104 102 101 100 99 98 95 93 92 90 89 88 87 86 85 84 82 81 79 78 78 77
71 72 73 73 74 76 78 79 81 82 83 85 86 87 89 90 92 94 96 98 100 103 105 107 109 111 113 114 115 115 115 115 114 114 112 111 111 111 110 109 108 107 106 106 105 106 105 105 105 104 104 104 104 104 104 104 104 104 104 104 104 105 105 104 103 101 100 99 98 95 93 91 90 89 88 87 86 84 83 81 79 76 74 73 73 73
72 73 75 75 75 76 77 79 80 83 84 87 88 90 92 94 96 98 100 102 104 107 109 110 111 111 111 111 111 111 111 110 110 109 108 107 107 106 105 104 104 103 103 103 103 103 103 103 102 101 101 102 102 102 103 104 104 104 104 104 104 104 104 103 102 101 100 98 96 93 91 90 89 88 86 85 83 82 80 78 75 73 71 69 69 69
73 74 75 76 76 76 77 79 81 84 87 90 92 94 96 98 100 101 102 104 105 107 107 108 108 107 107 107 107 107 107 107 106 105 104 102 102 101 100 100 100 101 101 101 101 100 100 100 99 100 100 101 102 102 103 104 104 104 104 104 104 103 103 102 100 98 96 94 93 91 89 88 86 85 83 81 80 78 77 75 73 71 69 67 67 66
73 75 76 77 78 78 80 82 85 87 91 93 95 97 99 101 102 102 101 101 102 103 103 103 102 102 103 103 103 103 103 102 101 100 98 97 97 98 98 98 98 98 98 98 98 98 98 99 99 100 100 101 102 102 102 103 103 103 103 103 103 102 100 98 96 94 92 91 90 89 87 85 82 81 79 78 76 75 74 73 71 69 67 66 65 65
75 77 78 80 82 83 85 87 89 92 94 96 97 99 100 100 100 99 97 96 96 97 97 98 98 98 98 98 98 98 98 97 96 96 95 95 95 96 96 96 97 96 97 97 98 99 99 100 100 100 100 101 101 101 101 102 102 102 102 102 101 99 97 95 93 91 90 89 87 85 83 81 79 77 76 75 74 73 72 71 69 68 66 64 63 63
78 80 82 85 87 89 90 91 93 94 95 95 95 96 97 97 96 96 94 92 93 93 93 93 93 93 92 92 92 93 93 94 94 94 94 93 94 95 95 96 97 97 98 98 99 99 100 100 100 100 99 99 99 99 100 100 100 100 99 98 97 96 94 93 92 90 88 86 85 82 80 78 76 74 73 72 71 71 69 68 67 65 63 62 61 62
83 85 88 90 92 93 94 94 94 93 93 92 91 92 93 93 93 93 91 90 90 90 90 89 89 89 88 88 89 90 91 91 91 92 92 92 92 93 95 96 96 97 97 98 98 98 98 98 98 98 98 97 97 97 97 98 98 97 96 95 94 93 93 92 90 88 86 84 82 80 78 76 74 72 70 69 69 68 66 65 64 63 61 59 59 59
89 90 92 93 94 94 93 92 92 92 91 90 90 90 91 91 91 91 90 88 87 87 87 86 86 86 86 87 87 88 89 88 88 89 90 90 91 92 93 94 94 95 96 96 96 96 96 97 97 97 97 96 96 95 96 96 96 95 94 92 92 92 91 89 87 85 83 82 80 78 76 74 71 69 67 66 66 65 64 62 62 60 58 57 57 57
93 93 94 93 93 92 91 90 90 90 89 89 89 89 89 89 88 88 87 85 84 84 84 84 84 84 84 85 85 86 87 87 87 88 88 89 89 90 91 93 93 94 94 94 94 94 95 95 96 96 96 95 95 95 95 95 94 93 92 91 90 90 88 86 84 82 81 80 78 76 75 72 69 67 65 63 63 62 62 61 59 57 56 56 56 55
94 93 92 91 91 90 90 89 88 88 86 86 86 86 86 85 84 84 83 83 82 82 82 82 82 82 82 83 84 85 86 87 87 87 88 88 89 90 91 92 92 92 93 93 93 93 93 94 95 95 95 95 94 94 93 93 92 92 91 89 88 87 85 84 82 81 80 78 77 76 74 72 69 66 63 61 60 60 60 59 57 54 53 53 54 53
92 91 90 89 89 89 88 87 86 84 83 82 82 81 80 81 81 80 80 80 80 80 80 80 80 81 81 82 83 84 85 86 87 87 88 89 89 90 90 91 91 91 91 92 92 92 92 93 93 94 94 94 93 92 91 91 91 90 88 86 85 84 83 82 81 80 78 77 76 75 73 71 69 65 62 60 59 58 57 58 56 53 50 51 51 50
90 90 89 89 88 87 86 86 85 84 81 79 78 78 78 78 79 79 79 79 79 79 80 80 80 80 81 81 82 83 84 85 86 87 88 88 89 89 90 90 90 90 91 91 91 91 91 92 92 93 93 92 91 90 90 89 88 87 85 84 82 82 82 81 80 79 78 76 75 74 73 71 69 66 62 59 58 57 56 57 55 51 49 49 49 48
89 88 88 88 87 87 86 86 85 84 81 79 78 78 77 78 78 78 79 79 79 79 79 80 80 81 81 82 82 83 84 85 85 86 87 87 87 88 89 89 89 89 90 90 90 90 90 91 91 91 91 91 90 89 88 87 85 84 83 82 81 80 80 80 79 78 77 75 74 73 72 71 69 66 63 59 57 55 55 56 54 50 48 47 46 46
88 87 87 86 86 85 84 83 83 81 80 78 77 77 77 78 78 78 78 79 79 80 80 80 81 81 82 82 83 83 83 84 84 85 86 86 86 86 87 87 87 88 89 89 89 89 89 89 90 89 89 89 88 87 86 85 84 82 80 79 79 78 78 77 77 77 75 74 73 72 70 69 68 66 63 59 56 53 53 54 53 49 47 46 45 44
87 86 84 84 84 82 80 79 79 78 78 77 76 76 77 77 78 78 78 79 80 80 81 80 80 81 81 81 82 82 82 83 83 84 84 84 84 84 84 85 86 87 87 88 88 88 87 87 87 87 87 86 86 85 84 83 82 81 79 78 77 76 76 76 75 75 74 73 71 70 69 68 66 65 62 59 55 52 51 53 52 47 46 46 44 42
85 84 82 82 81 80 78 77 76 77 77 77 76 76 77 78 78 79 79 79 79 80 80 80 79 79 79 79 80 80 81 81 81 82 82 82 82 82 83 84 85 85 86 86 86 86 85 85 85 85 85 84 83 82 82 81 80 79 78 77 76 75 74 74 74 74 73 71 69 68 67 65 64 63 61 58 54 50 49 52 52 46 43 43 43 41
85 83 82 80 79 78 77 76 75 75 76 76 76 77 78 78 79 78 78 78 78 78 78 78 78 78 77 77 78 78 79 80 80 80 81 80 80 81 82 83 84 84 85 85 84 84 84 84 83 83 82 81 81 80 79 79 79 78 76 75 74 73 72 72 72 72 71 69 68 66 65 64 62 60 58 56 54 49 44 46 51 48 42 40 41 40
85 83 82 81 79 78 77 77 75 74 73 74 75 76 77 78 78 78 77 77 77 77 76 77 77 77 77 77 77 77 78 78 79 79 80 80 80 81 81 82 83 83 83 83 83 83 82 82 81 81 80 80 79 78 78 78 77 76 75 74 73 71 70 68 68 69 68 67 65 64 63 62 60 59 56 54 52 50 43 40 44 48 44 39 38 39
86 85 84 82 80 79 79 78 78 77 76 76 76 77 77 78 78 77 76 76 75 75 75 75 75 76 76 76 76 76 76 77 77 78 78 79 79 80 80 80 81 81 81 81 81 80 80 80 80 79 79 79 78 78 77 77 76 75 74 73 72 70 68 66 65 65 65 64 63 61 60 59 58 57 55 52 50 49 45 39 38 43 45 41 37 37
Wind_Direction
277 277 278 279 280 281 282 283 283 284 285 286 287 287 288 289 290 292 293 293 293 294 293 292 293 292 291 291 292 293 293 293 292 292 293 293 294 294 295 296 297 298 298 297 297 297 296 296 295 294 293 293 292 292 291 291 291 290 288 285 282 282 282 280 274 271 270 270 272 272 271 271 271 272 271 271 270 270 270 271 271 272 272 272 272 272
278 279 280 281 282 283 283 284 284 285 286 287 288 288 289 290 291 292 292 292 293 293 292 292 292 291 290 291 291 292 293 293 293 294 294 294 294 295 295 296 297 298 298 297 297 296 295 295 294 293 292 292 291 291 291 291 290 289 286 283 282 282 281 277 273 272 272 273 273 273 272 272 272 272 271 271 270 270 271 271 272 273 273 273 273 273
279 279 281 282 283 283 284 284 285 286 287 287 288 289 290 290 291 291 292 292 292 292 292 291 291 291 290 291 291 292 293 294 294 294 295 295 295 295 296 297 297 297 297 296 296 295 294 293 293 292 291 291 291 291 291 290 289 288 286 283 282 281 280 277 274 273 273 273 273 273 272 272 272 272 272 271 271 271 272 272 272 272 273 273 273 273
279 280 282 283 283 283 284 284 285 286 287 288 288 289 290 290 290 291 291 292 292 292 291 291 290 290 290 290 291 292 293 294 294 295 295 295 295 296 297 297 297 297 296 296 295 294 293 292 291 291 291 291 292 291 290 289 289 287 285 283 281 280 279 278 276 275 274 273 273 273 272 272 272 272 273 273 273 273 273 273 273 273 273 273 273 273
279 280 282 283 283 283 284 284 285 286 287 288 289 289 289 289 290 291 291 290 291 291 291 290 290 290 290 290 292 293 294 294 294 294 295 295 296 297 297 297 297 296 296 295 294 293 292 292 292 292 292 293 292 291 290 289 288 287 285 283 282 280 279 278 277 275 275 274 273 273 272 272 272 272 272 272 273 273 273 273 273 273 273 273 273 273
279 280 281 281 282 283 284 285 286 287 287 288 288 288 289 289 290 290 290 290 290 291 291 290 290 291 291 291 292 293 294 294 294 294 295 296 297 297 297 297 296 296 295 294 294 293 292 293 293 293 293 293 291 290 289 288 287 286 285 284 282 281 280 279 278 277 276 275 274 274 273 273 273 273 273 273 273 273 273 273 273 273 272 272 272 273
280 281 281 282 282 283 284 284 285 286 286 287 287 288 288 289 289 290 290 290 291 291 290 290 290 291 292 292 293 293 294 294 295 295 296 297 297 297 297 296 295 295 295 294 293 293 293 294 294 294 293 291 289 288 287 287 286 285 284 283 282 281 280 280 279 278 277 276 275 275 275 275 275 275 275 275 274 274 274 274 274 274 274 273 273 273
281 282 282 282 283 283 284 284 285 285 286 286 287 287 288 288 289 289 290 290 290 290 290 290 291 292 292 293 294 294 295 295 296 296 297 297 297 296 296 295 295 295 294 294 294 294 294 294 293 292 290 289 287 286 286 285 285 284 283 283 282 282 282 281 280 279 279 278 277 277 277 276 276 276 276 276 276 276 275 275 275 275 275 275 275 275
282 282 283 283 284 284 284 285 286 286 287 287 287 288 288 288 289 289 289 289 290 290 290 290 292 292 293 294 294 295 296 297 297 297 297 297 296 296 295 295 295 294 294 293 294 294 294 292 291 290 289 288 287 286 285 284 284 283 283 283 283 283 283 282 282 281 281 281 280 280 279 279 279 279 278 278 278 278 278 277 277 277 277 277 277 277
281 282 283 284 285 285 286 286 287 287 288 288 288 289 289 289 289 289 289 289 289 289 290 291 292 293 294 295 295 296 297 298 297 297 297 297 296 295 295 294 294 293 293 293 293 293 292 291 291 290 289 288 287 286 285 284 283 283 283 284 284 283 283 283 283 283 282 282 282 282 282 281 281 281 281 281 281 281 281 281 281 280 280 280 279 279
283 284 284 285 285 285 286 286 287 287 288 288 289 289 289 289 289 289 289 289 289 290 291 292 293 294 295 296 297 298 298 298 297 297 297 296 295 295 294 293 293 292 292 292 292 292 292 291 291 290 289 288 287 286 286 285 285 285 284 284 284 283 283 283 282 282 282 282 282 282 282 282 281 281 281 281 281 281 281 281 281 281 280 280 280 279
284 284 284 285 285 285 285 286 286 287 287 288 288 288 289 289 289 289 290 290 290 291 292 293 293 294 296 297 298 298 298 297 297 296 295 295 294 294 294 293 292 292 292 292 292 292 292 292 291 291 290 289 288 287 287 286 286 285 285 284 284 283 282 282 282 282 282 282 281 281 281 281 281 280 280 280 279 279 279 279 279 279 279 279 279 279
286 285 285 285 285 286 286 287 287 288 288 289 289 289 290 290 290 291 291 291 292 292 293 294 294 295 297 297 297 297 297 296 296 295 294 294 294 294 293 293 292 293 293 293 293 293 293 292 292 290 289 289 288 288 287 287 287 286 286 286 285 284 284 284 284 283 283 282 282 282 281 281 281 281 280 280 280 279 279 279 279 279 279 279 279 279
287 287 287 287 287 287 288 288 289 289 290 290 291 291 291 291 291 292 292 292 292 293 294 294 295 296 297 297 297 296 295 295 294 294 294 294 295 294 294 294 294 294 294 293 293 293 292 292 291 290 290 289 289 289 289 289 289 288 288 288 287 287 287 286 286 285 285 284 284 283 283 282 282 282 282 281 281 281 280 280 280 279 279 279 279 279
287 287 287 287 288 288 288 289 290 290 291 291 291 292 292 292 293 293 293 293 293 294 295 295 296 296 297 297 296 295 294 293 294 294 295 295 295 295 295 295 294 294 293 293 292 292 291 291 290 290 290 290 290 290 290 291 290 290 289 289 289 288 288 288 287 287 287 286 286 285 285 285 284 283 283 282 282 281 281 280 280 279 279 278 278 277
287 287 287 288 288 289 289 290 291 291 292 292 292 293 294 294 295 295 295 295 295 295 296 295 296 296 296 296 295 293 293 294 294 295 295 295 295 295 295 294 293 293 292 292 292 291 291 291 291 292 292 292 292 292 292 292 292 291 291 291 291 291 290 290 290 289 289 288 287 287 286 285 285 284 283 282 281 281 280 279 278 278 277 276 276 275
290 290 290 290 290 291 292 292 293 293 294 294 295 295 295 295 296 296 296 297 296 296 296 295 295 295 295 295 294 293 294 294 295 295 295 295 295 295 294 294 293 293 293 293 293 293 293 293 293 293 294 294 294 294 295 294 294 294 294 293 293 293 292 292 291 290 289 289 288 287 286 285 285 284 283 282 281 280 279 278 277 277 276 275 275 274
292 292 293 293 293 293 294 295 296 296 297 297 297 297 297 297 297 297 297 297 296 296 296 296 295 295 295 294 294 294 295 295 295 295 295 295 294 294 294 294 294 295 295 295 295 295 295 296 296 296 296 296 296 296 296 296 295 295 294 294 293 293 292 292 291 291 291 290 289 289 288 287 286 285 284 283 282 281 280 279 278 277 276 276 275 274
295 294 294 295 295 296 297 297 297 297 298 298 298 297 297 297 297 297 297 296 296 296 296 296 296 296 296 295 295 295 295 295 295 294 294 294 295 295 295 295 296 296 296 297 298 298 298 298 298 298 297 297 296 296 296 295 295 295 295 294 294 294 294 294 293 293 292 291 291 290 289 289 288 287 286 285 284 283 282 281 280 279 278 277 276 276
297 297 296 295 296 296 297 297 297 297 298 298 297 297 297 297 297 298 298 297 297 297 297 296 296 296 296 295 295 295 295 295 295 295 295 295 295 296 296 296 297 298 298 299 299 299 298 297 297 297 296 296 296 296 296 296 296 296 296 296 296 296 296 295 295 294 293 293 292 291 291 290 289 288 287 287 286 285 284 283 281 281 280 279 278 277
300 300 299 297 297 297 297 298 298 298 298 298 298 298 298 298 298 298 298 298 298 298 297 296 296 296 296 296 296 296 296 296 296 296 296 296 296 297 297 298 298 298 298 298 297 297 296 296 297 297 297 297 297 297 297 297 297 297 297 297 297 297 296 296 296 295 295 294 294 293 292 291 290 290 289 288 287 286 285 284 283 282 281 280 279 278
301 301 300 299 299 299 299 299 300 300 300 299 299 300 299 299 298 298 299 299 298 298 297 296 296 296 296 296 296 296 296 296 296 297 297 297 297 297 298 297 297 297 297 297 297 296 297 297 297 297 297 297 298 298 298 298 298 298 298 298 298 297 297 297 296 296 295 295 294 293 293 292 291 290 289 289 288 287 287 286 285 284 283 282 281 280
302 302 302 302 301 300 301 302 302 302 302 301 300 300 299 299 298 298 298 298 297 297 297 296 296 296 296 296 297 297 297 297 297 297 297 297 297 297 297 296 297 297 297 297 297 297 297 297 298 298 298 298 298 299 299 299 299 299 298 298 298 298 297 297 296 296 295 295 294 293 293 292 292 291 291 290 290 289 288 288 287 286 285 284 283 282
303 303 303 304 303 303 303 303 303 303 302 301 300 299 299 298 298 298 298 298 297 297 297 297 298 298 298 298 298 298 298 297 297 296 296 296 297 297 297 297 298 298 298 298 298 298 299 299 299 299 299 299 299 300 299 299 299 299 299 298 298 298 297 297 296 296 296 296 295 295 294 294 294 293 292 292 291 290 288 287 286 285 284 283 282 281
305 304 304 303 302 302 303 303 303 302 301 300 300 299 298 298 298 299 299 299 300 300 300 300 300 300 299 299 298 297 296 296 296 296 296 297 297 298 298 299 299 299 299 299 299 300 300 299 299 300 300 300 300 299 299 299 299 298 298 298 298 298 297 297 298 297 297 297 297 296 295 295 294 293 293 292 290 289 288 287 286 285 284 283 282 281
307 307 306 305 303 302 302 301 300 300 300 300 300 300 300 300 301 302 302 302 302 301 300 299 299 298 298 297 297 297 296 297 297 298 298 299 299 300 300 300 300 300 300 299 299 299 299 299 299 299 299 299 299 298 298 298 298 298 298 298 298 299 299 299 299 298 298 297 296 295 295 295 294 294 293 292 291 291 290 289 287 286 285 284 283 282
309 308 308 307 305 304 304 303 302 302 302 302 303 303 303 303 303 303 302 301 301 300 299 298 298 298 298 298 298 299 299 300 300 300 301 301 301 301 301 300 300 299 299 299 299 299 299 299 298 298 298 298 298 298 298 298 299 299 299 299 299 299 299 298 298 297 297 296 295 295 295 295 295 295 294 294 293 292 292 290 289 288 287 286 285 284
310 309 309 309 308 307 307 307 306 306 305 305 304 303 303 303 302 302 301 300 300 299 299 299 299 299 300 300 300 300 300 300 300 300 299 299 299 299 299 298 298 298 298 298 298 298 298 298 298 298 299 299 299 299 299 300 300 300 300 299 299 299 298 297 297 296 296 296 296 297 297 297 297 296 296 296 295 294 293 292 290 289 288 287 287 286
311 310 310 310 309 308 308 308 307 307 306 305 304 304 303 303 302 302 302 301 301 301 300 300 300 300 300 300 299 299 299 298 298 298 298 297 297 297 297 297 297 298 298 298 298 298 298 298 299 299 299 300 300 300 300 300 299 299 299 299 299 298 298 297 297 297 297 298 298 299 299 298 298 298 297 296 296 294 293 292 291 290 289 289 288 287
312 311 311 311 310 310 310 310 310 309 308 307 307 306 305 305 304 303 303 302 301 301 300 300 299 299 299 298 298 297 297 297 297 297 297 297 297 297 297 298 298 299 299 299 299 299 299 299 299 300 300 300 300 300 299 299 299 299 299 299 299 299 299 298 299 299 299 299 300 300 299 299 298 298 297 296 295 294 293 292 291 291 290 289 288 287
314 314 314 314 313 312 312 312 311 310 309 308 307 306 305 304 303 302 301 300 299 299 298 298 297 297 298 297 297 297 297 297 297 297 297 298 298 299 299 299 299 299 299 299 299 299 299 299 300 300 300 300 299 299 299 299 299 299 300 300 300 300 300 299 300 300 300 301 301 300 300 300 299 299 297 296 295 294 293 292 291 291 290 289 288 286
317 316 316 315 314 312 311 310 309 308 307 305 304 303 303 302 301 300 299 298 298 297 297 297 297 297 297 297 297 297 297 297 298 298 298 299 299 299 299 299 299 299 298 299 299 299 299 299 299 299 299 299 299 299 299 299 300 300 300 300 300 300 300 300 300 301 302 302 302 301 301 301 300 299 298 297 296 295 294 293 292 291 290 289 287 286
317 315 314 313 312 310 308 307 306 305 304 303 302 301 301 300 299 298 298 298 297 297 297 296 296 297 297 297 297 297 297 298 298 298 298 299 299 299 299 299 299 299 299 299 299 299 299 299 299 299 299 299 299 299 300 300 300 301 301 301 301 301 301 301 302 303 303 303 302 302 302 302 301 300 299 298 297 296 294 293 292 290 289 288 287 285
314 313 311 310 309 307 306 305 304 303 302 301 301 300 300 299 299 298 298 298 297 297 297 297 297 297 297 297 297 298 298 298 298 299 299 299 299 299 299 299 299 299 299 298 298 298 298 299 299 300 300 300 301 301 301 302 302 302 302 302 303 302 303 303 304 304 304 304 303 303 303 302 301 300 300 299 297 296 295 293 292 291 289 288 286 285
312 311 309 308 308 307 306 305 304 303 302 301 300 300 299 299 298 298 298 298 298 298 298 298 298 299 299 299 299 299 299 299 299 299 299 299 299 299 299 298 298 298 298 298 298 299 299 300 301 301 302 302 302 303 303 303 303 303 304 304 304 304 304 305 305 304 304 304 304 304 303 302 301 300 299 298 297 296 295 294 293 292 290 288 287 285
311 310 309 308 308 307 306 305 304 303 302 301 301 300 300 299 299 299 299 300 300 300 300 300 300 300 300 299 299 299 299 299 299 299 299 299 299 298 298 298 298 298 299 299 300 301 301 302 303 303 303 303 303 304 304 304 304 304 304 304 304 304 304 304 304 304 304 305 304 304 303 302 301 300 299 298 297 296 295 294 293 292 291 289 287 286
311 311 310 309 308 307 306 305 305 304 303 303 303 303 302 302 301 301 302 301 301 300 300 300 300 299 299 299 299 299 299 299 300 300 300 300 299 299 300 300 301 301 302 302 303 303 304 304 304 304 304 304 304 304 304 304 304 304 303 303 304 304 305 305 305 305 306 305 304 303 303 302 301 300 299 298 298 296 295 295 294 292 291 290 288 286
313 312 311 311 310 309 308 307 307 306 306 305 305 305 304 303 303 303 303 302 301 301 301 300 300 300 300 300 301 300 301 301 301 301 302 302 302 302 303 303 304 304 304 304 304 305 304 304 304 304 304 304 304 304 304 304 303 303 304 304 305 306 306 306 306 307 306 305 304 304 303 302 301 301 300 299 298 297 296 295 294 293 292 290 289 287
315 314 314 313 312 311 310 310 309 308 308 308 307 306 305 305 305 304 304 304 304 304 303 303 303 303 303 303 302 302 302 303 303 303 304 304 304 304 304 304 304 304 304 304 304 304 304 304 304 304 304 304 304 304 304 304 304 305 305 306 307 307 307 307 307 307 306 305 305 304 303 303 302 301 300 300 298 297 296 295 294 293 292 291 289 287
317 316 315 314 313 313 312 312 311 311 310 310 309 308 308 307 307 307 307 307 307 306 306 306 305 305 305 304 304 303 303 303 303 303 303 303 303 303 303 303 303 303 303 303 304 304 304 304 304 304 304 304 304 305 305 306 306 306 307 308 308 308 308 308 308 307 306 305 305 305 304 303 302 302 301 300 299 298 297 296 294 294 293 291 289 287
318 317 317 316 315 315 314 314 313 313 313 312 311 311 310 310 310 309 309 309 308 308 307 307 307 306 306 305 304 304 304 304 303 303 303 303 303 303 303 303 303 303 304 304 304 305 305 304 304 304 304 305 306 307 307 307 308 308 309 309 309 309 309 309 308 307 307 306 306 305 305 304 304 303 302 302 300 299 298 296 295 294 293 291 289 287
319 319 318 318 317 317 316 316 315 315 315 314 313 312 312 311 310 310 310 310 309 309 308 307 307 306 306 305 304 304 304 304 304 304 304 304 304 304 303 304 304 305 305 305 305 305 305 305 305 306 307 308 308 308 308 308 309 309 309 310 310 310 309 309 308 308 307 307 307 307 306 306 305 305 304 303 302 300 299 297 295 294 293 291 288 287
321 321 320 320 319 318 318 317 316 316 315 315 313 313 312 312 311 311 310 310 309 309 308 307 307 306 306 305 305 305 305 305 305 305 305 305 305 305 305 305 306 306 306 306 306 306 306 307 307 308 308 309 309 309 309 309 309 310 310 310 310 310 310 309 309 309 309 309 309 308 308 307 307 306 306 305 303 302 300 298 296 295 293 290 288 286
323 323 322 321 320 320 319 318 318 317 317 316 315 315 314 313 312 312 311 311 310 310 309 309 308 308 307 307 307 306 306 306 306 306 306 306 306 306 307 307 307 307 307 307 307 307 308 308 308 308 309 309 310 310 310 310 310 310 311 311 311 311 310 310 310 310 310 310 309 309 309 308 308 308 307 306 305 304 301 298 297 296 294 291 288 286
325 325 324 323 323 322 322 321 320 319 319 318 318 317 316 315 314 314 313 312 312 311 311 310 310 309 309 309 308 308 308 307 307 307 307 307 308 308 308 308 308 308 308 308 308 309 309 309 309 309 310 310 310 311 311 311 311 312 312 312 312 311 311 311 311 311 310 310 310 310 309 309 308 308 308 307 306 304 302 299 297 296 294 291 289 287
327 327 326 325 324 324 323 322 321 320 320 320 319 318 317 316 315 315 315 314 314 313 313 313 312 311 311 310 310 309 309 309 308 308 308 308 308 308 309 309 309 309 309 309 310 310 310 310 310 310 310 311 311 312 312 312 312 312 312 312 312 312 311 311 311 311 311 311 311 310 310 309 308 308 307 307 306 305 303 300 298 297 295 292 289 287
328 328 328 327 326 325 324 323 323 322 321 321 321 320 319 318 318 318 318 317 316 315 315 314 313 312 312 311 310 310 309 309 309 309 309 309 309 309 309 310 310 310 310 310 310 311 311 311 311 311 311 312 312 313 313 313 313 313 313 313 313 313 313 313 312 312 311 311 311 310 309 309 308 308 307 307 307 306 304 300 297 297 295 293 290 288
330 329 329 329 328 327 326 326 325 324 324 323 324 323 322 321 321 320 319 318 317 316 315 314 313 313 312 311 310 310 310 309 309 309 309 310 310 311 311 311 311 311 311 311 311 312 312 312 312 312 313 313 313 313 313 313 313 313 314 314 314 314 314 314 313 312 311 311 310 309 309 308 308 307 307 307 306 306 305 301 298 296 295 293 291 288
332 331 331 331 331 330 329 328 328 327 327 326 326 325 324 322 321 321 320 319 318 317 316 315 314 313 313 312 312 311 311 311 311 311 311 312 312 312 312 312 312 312 312 313 313 313 313 313 313 314 314 314 314 313 313 313 314 314 315 315 315 315 315 314 313 312 311 311 310 310 309 309 308 308 307 307 306 305 305 302 299 297 295 293 291 288
334 334 334 334 333 332 331 330 329 329 328 327 326 326 324 323 322 322 321 320 319 318 317 316 316 315 315 314 314 314 313 313 313 313 314 314 314 314 314 314 314 314 314 314 315 315 315 315 315 315 315 315 314 315 315 315 316 316 316 316 316 316 315 314 313 312 311 311 311 311 310 309 309 308 308 307 306 305 304 302 299 297 296 294 291 288
336 336 336 336 336 335 334 332 332 331 330 329 328 327 326 324 323 323 322 321 320 319 319 318 318 318 317 317 317 316 316 315 315 315 315 315 315 315 315 315 315 315 316 316 317 317 317 316 316 316 316 316 316 317 317 318 318 318 317 317 316 316 315 314 313 312 312 312 312 311 311 310 310 309 309 308 307 306 304 303 299 297 296 295 292 288